Regional Weather Roundup
Issued by NWS

Home | Current Version | Previous Version | Text Only | Print | Product List | Glossary Off
Versions: 1 2 3 4 5 6 7 8 9 10 11 12 13 14 15 16 17 18 19 20 21 22 23 24 25 26 27 28 29 30 31 32 33 34 35 36 37 38 39 40 41 42 43 44 45 46 47 48 49 50

967
ASUS45 KTFX 260410
RWRMT
MONTANA REGIONAL WEATHER ROUNDUP
NATIONAL WEATHER SERVICE GREAT FALLS MT
1000 PM MDT TUE JUL 25 2017

NOTE: "FAIR" INDICATES FEW OR NO CLOUDS BELOW 12000 FEET WITH NO
SIGNIFICANT WEATHER AND/OR OBSTRUCTIONS TO VISIBILITY.

MTZ001>007-043-260500-
WEST OF THE DIVIDE

CITY           SKY/WX    TMP DP  RH WIND       PRES   REMARKS
KALISPELL      CLEAR     69  44  40 CALM      29.98R
MISSOULA       CLEAR     72  35  25 NW6       29.99R
BUTTE          CLOUDY    73  47  39 S5        30.15R
MULLAN PASS    CLEAR     63  31  30 NW6       30.20R
ANACONDA         N/A     70  39  32 CALM      30.11R
DEER LODGE       N/A     70  36  28 CALM      30.10R
EUREKA           N/A     70  34  26 MISG      29.98R
HAMILTON         N/A     75  48  38 CALM      30.02R
LIBBY            N/A     72  36  26 SE3       29.98R
$$

MTZ008-052>055-260500-
SOUTHWEST MONTANA

CITY           SKY/WX    TMP DP  RH WIND       PRES   REMARKS
BOZEMAN        CLEAR     68  48  48 SE5       30.08R
DILLON         CLOUDY    69  48  47 W13G18    30.13R
W YELLOWSTONE  CLEAR     57  52  82 CALM      30.29R
ENNIS          CLEAR     64  48  55 S12       30.20R
THREE FORKS      N/A     70  52  52 CALM      30.06R
$$

MTZ009-010-012-014-046-048-049-054-260500-
EAST SLOPES AND CENTRAL MONTANA

CITY           SKY/WX    TMP DP  RH WIND       PRES   REMARKS
CUT BANK       CLEAR     67  38  34 E12       30.11R
GREAT FALLS    CLEAR     72  36  26 NE13      30.06R
MALMSTROM AFB  CLEAR     72  38  30 NE10      30.06R
HELENA         PTCLDY    75  51  43 NW5       30.03R
CHOTEAU          N/A     63  36  36 NE8       30.12R
$$

MTZ011-013-016-021-045-047-050-051-260500-
NORTH CENTRAL MONTANA

CITY           SKY/WX    TMP DP  RH WIND       PRES   REMARKS
HAVRE          CLEAR     73  39  29 NE7       30.06R
LEWISTOWN      CLEAR     66  41  40 E9        30.12R
N BAR RANCH      N/A     61  39  44 W3        30.18R
CHINOOK          N/A     70  50  49 CALM      30.05R
$$

MTZ017>020-022>027-061-062-260500-
NORTHEAST MONTANA

CITY           SKY/WX    TMP DP  RH WIND       PRES   REMARKS
GLASGOW        CLEAR     73  44  35 N3        30.05S
JORDAN           N/A     74  39  28 E6        30.07R
SIDNEY         CLOUDY    70  44  39 N5        30.04R
WOLF POINT     MOCLDY    72  43  35 N9        30.06R
MALTA          PTCLDY    68  46  45 NE6       30.05S
PLENTYWOOD       N/A     70  45  40 CALM      30.07R
POPLAR           N/A     70  43  37 N3        30.06R
$$

MTZ028>42-056>058-260500-
SOUTHCENTRAL AND SOUTHEAST MONTANA

CITY           SKY/WX    TMP DP  RH WIND       PRES   REMARKS
BAKER          CLOUDY    74  42  31 S5        30.10R
BILLINGS       PTCLDY    67  44  43 N7        30.10R
LIVINGSTON     CLEAR     64  45  49 E9        30.14R
MILES CITY     CLOUDY    76  39  26 NE6       30.06R
BIG TIMBER     CLEAR     63  45  51 N5        30.16R
FORSYTH          N/A     72  41  33 CALM      30.06R
LAUREL           N/A     66  43  42 W7        30.11R
$$

REGIONAL REPORTS...DAKOTAS

CITY           SKY/WX    TMP DP  RH WIND       PRES   REMARKS
WILLISTON      CLOUDY    73  47  39 N8        30.04R
MINOT          PTCLDY    69  54  58 NW9       30.01R
DICKINSON      CLOUDY    74  46  36 N7        30.04R
BEACH            N/A     66  48  52 CALM      30.10S
CROSBY           N/A     63  52  67 NW6       30.06R
TIOGA            N/A     64  50  59 N5        30.07S
WATFORD CITY     N/A     64  43  45 CALM      30.04R
BISMARCK       CLOUDY    75  54  47 N7        30.01R
GRAND FORKS    PTCLDY    65  60  84 W5        29.94S
FARGO          MOCLDY    70  62  76 CALM      29.97R
BUFFALO SD       N/A     72  56  57 S5        30.04R
RAPID CITY     CLOUDY    75  53  46 N8        30.12R
$$

REGIONAL REPORTS...WYOMING/IDAHO/WASHINGTON

CITY           SKY/WX    TMP DP  RH WIND       PRES   REMARKS
GILLETTE       CLOUDY    64  61  90 S6        30.18S
SHERIDAN       CLOUDY    62  59  90 SW5       30.13S
BUFFALO WY     CLOUDY    63  58  83 S7        30.21S
CODY           CLOUDY    60  52  74 S8        30.22S
YELLOWSTONE LA   N/A     48  48 100 NW3       30.39R
IDAHO FALLS    PTCLDY    69  55  60 NE7       30.12R
BOISE          PTCLDY    85  48  27 W5        29.92S
SPOKANE        PTCLDY    81  33  17 N5        29.97S
$$

REGIONAL REPORTS...ALBERTA

CITY           SKY/WX    TMP DP  RH WIND       PRES   REMARKS
EDMONTON       CLEAR     61  55  82 CALM      30.03R
CALGARY        PTCLDY    64  46  52 E12       30.12R
LETHBRIDGE     PTCLDY    64  45  48 E7        30.09R
MEDICINE HAT   CLEAR     70  41  35 CALM      30.06R
WATERTON GATE    N/A     54  46  76 CALM        N/A
CARDSTON         N/A     63  45  51 CALM        N/A
MILK RIVER       N/A     63  43  48 E12         N/A
ONEFOUR          N/A     64  39  39 NE12        N/A
$$

REGIONAL REPORTS...SASKATCHEWAN

CITY           SKY/WX    TMP DP  RH WIND       PRES   REMARKS
SWIFT CURRENT  CLEAR     63  46  55 E3        30.10R
REGINA         PTCLDY    63  52  67 NW6       30.06R
SASKATOON      PTCLDY    59  54  82 W6        30.06R
CYPRESS HILLS    N/A     59  39  47 N2          N/A
VAL MARIE        N/A     59  41  51 NE8         N/A
ROCKGLEN         N/A     63  43  48 N3          N/A
$$




USA.gov is the U.S. government's official web portal to all federal, state and local government web resources and services.